Content
SEND FEEDBACK

Daily
Averages
Monthly
Summary
United States of America

SAULT STE. MARIE, MICHIGAN


Home > North America > United States > Michigan
Elevation: 699 feet     Latitude: 46 28N     Longitude: 084 22W

WEATHER
 
SELECT A DAY
Number of Records: 219,719;   Date Range: 1/1/95 - 11/22/14
 
SHARE

PRINT THIS DATA

[ ← Previous Day ]
WEATHER ALMANAC - MAY 6, 2013
[ Next Day → ]
[ °C ]   °F
Weather ElementAverageHighLow
Temperature54.7 °F73.9 °F (2:55 pm)37.9 °F (5:55 am)
Dewpoint37.8 °F43 °F (10:55 am)34 °F (5:55 am)
Humidity58.3 %89 % (6:55 am)29 % (3:55 pm)
Barometer30.08 in30.13 in (8:55 am)30.02 in (6:55 pm)
Wind Speed4.7 mph11.5 mph (5:55 pm)
Weather ElementAverage
Visibility10 mi
Wind DirectionSSW (210.4 °)

Weather ElementTotal
Precipitation---
Heating Degree Days9.1 (Base 65)
Growing Degree Days5.9 (Base 50)
Averaged from 23 records on May 6, 2013
WEATHER CONDITIONS BREAKOUT
WIND DIRECTION BREAKOUT
WEATHER BY HOUR - MAY 6, 2013
[ °C ]   °F
Local TimeTemperatureDewpointHumidityBarometerVisibilityWind DirectionWind SpeedGust SpeedPrecipitationEventsConditions
1:55 AM41.0 °F35.1 °F79 %30.09 in10.0 miWSW (250°)3.5 mphClear
2:55 AM39.9 °F35.1 °F83 %30.09 in10.0 miCalmClear
3:55 AM39.0 °F35.1 °F86 %30.09 in10.0 miWest (280°)3.5 mphClear
4:55 AM39.0 °F35.1 °F86 %30.09 in10.0 miCalmClear
5:55 AM37.9 °F34.0 °F86 %30.10 in10.0 miCalmClear
6:55 AM37.9 °F35.1 °F89 %30.11 in10.0 miCalmClear
7:55 AM44.1 °F37.9 °F79 %30.12 in10.0 miCalmClear
8:55 AM51.1 °F39.0 °F63 %30.13 in10.0 miCalmClear
9:55 AM55.0 °F42.1 °F62 %30.12 in10.0 miNW (320°)3.5 mphClear
10:55 AM61.0 °F43.0 °F52 %30.12 in10.0 miNW (320°)4.6 mphClear
11:55 AM64.9 °F39.9 °F40 %30.11 in10.0 miNNW (330°)9.2 mphClear
12:55 PM68.0 °F39.0 °F35 %30.10 in10.0 miNW (320°)9.2 mphClear
1:55 PM71.1 °F41.0 °F34 %30.08 in10.0 miNW (320°)6.9 mphClear
2:55 PM73.9 °F41.0 °F30 %30.06 in10.0 miNW (310°)8.1 mphClear
3:55 PM73.0 °F39.0 °F29 %30.05 in10.0 miWest (260°)6.9 mphClear
4:55 PM72.0 °F39.9 °F31 %30.04 in10.0 miWNW (300°)8.1 mphClear
5:55 PM72.0 °F37.9 °F29 %30.03 in10.0 miWNW (300°)11.5 mphClear
6:55 PM70.0 °F37.9 °F31 %30.02 in10.0 miWNW (290°)6.9 mphClear
7:55 PM62.1 °F37.9 °F41 %30.03 in10.0 miWest (270°)5.8 mphClear
8:55 PM52.0 °F37.0 °F57 %30.04 in10.0 miWSW (250°)4.6 mphClear
9:55 PM45.0 °F36.0 °F71 %30.07 in10.0 miWSW (250°)5.8 mphClear
10:55 PM43.0 °F36.0 °F76 %30.08 in10.0 miSouth (190°)4.6 mphClear
11:55 PM44.1 °F36.0 °F73 %30.07 in10.0 miWest (280°)4.6 mphClear
Hourly data recorded from KANJ, located miles away from Sault Ste. Marie, Michigan







STORIES FROM OUR PARTNERS